Regional Weather Roundup
Issued by NWS Charleston, SC

Home | Current Version | Previous Version | Text Only | Print | Product List | Glossary On
Versions: 1 2 3 4 5 6 7 8 9 10 11 12 13 14 15 16 17 18 19 20 21 22 23 24 25 26 27 28 29 30 31 32 33 34 35 36 37 38 39 40 41 42 43 44 45 46 47 48 49 50
000
ASUS42 KCHS 301826
RWRCHS

REGIONAL WEATHER ROUNDUP
NATIONAL WEATHER SERVICE CHARLESTON SC
200 PM EDT SUN AUG 30 2015

NOTE: "FAIR" INDICATES FEW OR NO CLOUDS BELOW 12,000 FEET WITH NO
SIGNIFICANT WEATHER AND/OR OBSTRUCTIONS TO VISIBILITY.

NOT ALL STATIONS ARE QUALITY CONTROLLED BY THE NATIONAL
WEATHER SERVICE. USE DATA WITH CAUTION...ESPECIALLY
DEWPOINT OBSERVATIONS.

SCZ027-030-031-034>040-042>050-301900-
...SOUTHEAST SOUTH CAROLINA...

CITY           SKY/WX    TMP DP  RH WIND       PRES   REMARKS
N CHARLESTON   LGT RAIN  77  74  90 E8        30.14R
6HR MIN TEMP:  75; 6HR MAX TEMP:  79; 6HR PCP:  0.28;

WATERFRONT PRK   N/A     78  76  94 NE8       30.11R
MOUNT PLEASANT FOG       75  75 100 SE3       30.14S VSB 3/4
JOHNS ISLAND   LGT RAIN  75  73  94 E9        30.14R
PINOPOLIS      NOT AVBL
MONCKS CORNER  LGT RAIN  77  73  88 CALM      30.14F
SUMMERVILLE    LGT RAIN  77  75  94 E3        30.14S
BEAUFORT MCAS  TSTM      78  75  90 SE8       30.13R VSB 1/2
6HR MIN TEMP:  75; 6HR MAX TEMP:  80; 6HR PCP:  0.02;

BEAUFORT ARPT  CLOUDY    75  73  94 E7        30.13R VSB 1/2
HILTON HEAD IS HVY RAIN  75  72  88 NE6       30.13R
WALTERBORO     CLOUDY    79  73  83 E5        30.14R
ALLENDALE      MOCLDY    81  75  83 E6        30.10S

...SOUTHERN MIDLANDS AND PEE DEE...

CITY           SKY/WX    TMP DP  RH WIND       PRES   REMARKS
GEORGETOWN     NOT AVBL
KINGSTREE      NOT AVBL
ORANGEBURG     CLOUDY    80  73  79 NE8       30.12F
6HR MIN TEMP:  69; 6HR MAX TEMP:  79; 6HR PCP:  0.02;

BARNWELL       FAIR      81  73  78 NE9       30.11F
AIKEN          MOCLDY    77  68  73 NE13G20   30.16F
MANNING        CLOUDY    77  72  83 E8        30.13S VSB 1
COLUMBIA       CLOUDY    80  65  59 N7        30.14S
6HR MIN TEMP:  73; 6HR MAX TEMP:  80; 6HR PCP:  0.02;

SUMTER         CLOUDY    80  69  70 NE9       30.13S
6HR MIN TEMP:  70; 6HR MAX TEMP:  80; 6HR PCP:  0.01;

FLORENCE       RAIN      78  71  79 CALM      30.15S
6HR MIN TEMP:  71; 6HR MAX TEMP:  81; 6HR PCP:  0.04;

MYRTLE BEACH   RAIN      79  72  78 SE15      30.17R
N MYRTLE BEACH LGT RAIN  80  71  74 SE9       30.15R
6HR MIN TEMP:  73; 6HR MAX TEMP:  83; 6HR PCP: TRACE;


$$

GAZ063-065-086>088-099>101-113>116-118-119-134>141-150-301900-
...SOUTHEAST GEORGIA...

CITY           SKY/WX    TMP DP  RH WIND       PRES   REMARKS
SAVANNAH ARPT  RAIN      78  75  90 E9        30.11R FOG
6HR MIN TEMP:  73; 6HR MAX TEMP:  84; 6HR PCP:  0.01;

HUNTER AAF     LGT RAIN  77  77 100 E5        30.08R
6HR MIN TEMP:  74; 6HR MAX TEMP:  84; 6HR PCP:  0.06;

FORT STEWART   LGT RAIN  77  73  88 SE10G17   30.07S
6HR MIN TEMP:  73; 6HR MAX TEMP:  83; 6HR PCP:  0.09;

STATESBORO     PTSUNNY   82  81  98 E7        30.08F HX  94
SYLVANIA       MOCLDY    82  77  87 E9        30.10S
CLAXTON        NOT AVBL

...CSRA...CENTRAL AND FAR SOUTHEAST GEORGIA...

CITY           SKY/WX    TMP DP  RH WIND       PRES   REMARKS
THOMSON        CLOUDY    79  76  90 E8        30.15F
AUGUSTA-BUSH   CLOUDY    81  74  79 E9        30.10F
6HR MIN TEMP:  70; 6HR MAX TEMP:  81; 6HR PCP:  0.08;

AUGUSTA-DANIEL HVY RAIN  89  73  59 E8        30.11F HX  97
SWAINSBORO     CLOUDY    86  75  70 NE7       30.08F HX  95
VIDALIA        MOSUNNY   88  73  62 SE9       30.05F HX  96
EASTMAN        FAIR      87  72  60 NW6       30.08F HX  93
HAZLEHURST     MOCLDY    87  74  64 CALM      30.04F HX  94
ALMA           MOSUNNY   87  73  62 MISG      30.04F HX  94
6HR MIN TEMP:  74; 6HR MAX TEMP:  88;

WAYCROSS       CLOUDY    83  77  82 SE18      30.05R HX  91
JESUP          LGT RAIN  79  77  94 E7        30.07F
BAXLEY         CLOUDY    86  75  70 CALM      30.04F HX  95
BRUNSWICK      CLOUDY    75  73  94 NE6       30.08F
SAINT SIMONS   RAIN      74  74 100 NE7       30.07F FOG
6HR MIN TEMP:  73; 6HR MAX TEMP:  85; 6HR PCP:  1.72;


$$

SCZ027-028-034-036>038-045-046-048>050-GAZ119-141-301900-
...LAKE AND SUPPLEMENTAL COASTAL OBSERVATIONS...

STATION/POSITION TIME  TEMP    WIND        PRES    WAVE   SWELL
                       AIR SEA DIR/SP/G            HT/PER HT/PER/DIR
                 (UTC) (F)     (DEG/KT/KT) (MB)    (FT/S) (FT/S/D)
UPR LAKE MARION  NOT AVBL
WINYAH BAY       1745   79     130/  5     1020.0S
LAKE MURRAY      1800   75      50/  2/  5 1020.3S
ACE BASIN NERRS  NOT AVBL
FORT PULASKI     NOT AVBL
SAPELO ISLAND    1800   74      50/  5     1019.0S

$$

ANZ835-935-AMZ111-154-330-350-352-354-370-450-454-472-301900-
...C-MAN AND BUOY OBSERVATIONS...

STATION/POSITION TIME  TEMP    WIND        PRES    WAVE   SWELL
                       AIR SEA DIR/SP/G            HT/PER HT/PER/DIR
                 (UTC) (F)     (DEG/KT/KT) (MB)    (FT/S) (FT/S/D)
BUOY 41004       1750   78 84   50/  8/ 10 1020.3F   4/11   3/11
BUOY 41008       1750   79 84  110/ 17/ 21 1018.7R   4/11   3/ 90/11
FOLLY BEACH CMAN 1800   75     110/ 16/ 18 1020.3S
CAPERS NEARSHORE NOT AVBL
FRIPP NEARSHORE  NOT AVBL


STATION/POSITION TIME  TEMP    WIND        PRES    WAVE   SWELL
                       AIR SEA DIR/SP/G            HT/PER HT/PER/DIR
                 (UTC) (F)     (DEG/KT/KT) (MB)    (FT/S) (FT/S/D)
5E ST. MARYS GA  1721      86                N/A     4/11   2/110/11
FRYING PAN BUOY  1750   81 82   80/ 10/ 12 1021.1S   4/10   3/140/10
BUOY 41025       1750   79 83   20/  6/  8 1020.8F   4/10   3/ 90/10
CAPE LOOKOUT NC  1800   79      60/  3/  4 1020.5S
BUOY 41002       1750   79 84  310/  4/ 10 1021.4F   4/10   5/130/10
BUOY 41010       1720   85 86  140/ 19/ 21 1018.1R
ST AUGUSTINE FL  1800   80 84   80/  7/  9 1017.5F


$$



USA.gov is the U.S. government's official web portal to all federal, state and local government web resources and services.